Tracking 19717 objects as of 25-Jun-2019
HD Live streaming from Space Station
objects crossing your sky now

THORAD AGENA D DEB

Track THORAD AGENA D DEB now!
10-day predictions


NORAD ID: 6766
Int'l Code: 1970-025NH
Perigee: 841.4 km
Apogee: 961.4 km
Inclination: 100.1 °
Period: 102.9 minutes
Semi major axis: 7272 km
RCS: 0.0383 m2 (small)
Launch date: April 8, 1970
Source: United States (US)
Launch site: AIR FORCE WESTERN TEST RANGE (AFWTR)

Note: This is SATELLITE DEBRIS
aabbcc
Your satellite tracking list
Your tracking list is empty




NASA's NSSDC Master Catalog

Two Line Element Set (TLE):
1  6766U 70025NH  19176.12826247  .00000370  00000-0  27950-3 0  9991
2  6766 100.1380 251.2097 0082501  62.4886 298.4629 13.99872560478320
Source of the keplerian elements: AFSPC